TimeEST,TemperatureF,Dew PointF,Humidity,Sea Level PressureIn,VisibilityMPH,Wind Direction,Wind SpeedMPH,Gust SpeedMPH,PrecipitationIn,Events,Conditions,WindDirDegrees,DateUTC
12:38 AM,53.6,51.8,94,30.40,5.0,NE,3.5,-,N/A,,Overcast,40,2013-01-10 05:38:00
12:53 AM,53.1,52.0,96,30.39,5.0,NNE,4.6,-,N/A,,Overcast,30,2013-01-10 05:53:00
1:10 AM,53.6,51.8,94,30.40,4.0,NE,3.5,-,N/A,,Overcast,40,2013-01-10 06:10:00
1:53 AM,53.6,51.8,94,30.40,4.0,Calm,Calm,-,N/A,,Overcast,0,2013-01-10 06:53:00
2:53 AM,53.1,51.1,93,30.40,5.0,NE,3.5,-,N/A,,Overcast,50,2013-01-10 07:53:00
3:53 AM,53.1,51.1,93,30.39,6.0,NNE,3.5,-,N/A,,Overcast,30,2013-01-10 08:53:00
5:53 AM,53.1,51.1,93,30.36,7.0,NNE,4.6,-,N/A,,Overcast,30,2013-01-10 10:53:00
6:53 AM,53.1,51.1,93,30.36,7.0,NE,4.6,-,N/A,,Overcast,50,2013-01-10 11:53:00
7:53 AM,53.1,51.1,93,30.36,7.0,NE,3.5,-,N/A,,Overcast,40,2013-01-10 12:53:00
8:53 AM,54.0,51.1,90,30.37,7.0,NE,4.6,-,N/A,,Overcast,40,2013-01-10 13:53:00
9:53 AM,55.9,52.0,87,30.38,8.0,NE,3.5,-,N/A,,Overcast,50,2013-01-10 14:53:00
10:53 AM,57.9,53.1,84,30.37,9.0,ENE,5.8,-,N/A,,Overcast,70,2013-01-10 15:53:00
11:53 AM,61.0,54.0,78,30.35,10.0,ENE,4.6,-,N/A,,Overcast,60,2013-01-10 16:53:00
12:53 PM,63.0,59.0,87,30.31,10.0,ESE,8.1,-,0.01,,Overcast,120,2013-01-10 17:53:00
1:53 PM,66.0,57.9,75,30.30,10.0,SE,13.8,-,N/A,,Overcast,140,2013-01-10 18:53:00
2:53 PM,66.0,57.9,75,30.28,10.0,ESE,8.1,-,N/A,,Overcast,110,2013-01-10 19:53:00
3:53 PM,64.9,57.9,78,30.28,10.0,SE,8.1,-,0.01,,Overcast,140,2013-01-10 20:53:00
4:53 PM,64.9,57.0,75,30.26,10.0,SE,6.9,-,N/A,,Overcast,130,2013-01-10 21:53:00
5:28 PM,64.4,55.4,73,30.28,10.0,SSE,5.8,-,N/A,,Overcast,150,2013-01-10 22:28:00
5:53 PM,64.0,57.0,78,30.26,10.0,SE,3.5,-,N/A,,Overcast,130,2013-01-10 22:53:00
6:53 PM,62.1,57.0,84,30.25,7.0,SE,4.6,-,0.00,Rain,Light Rain,130,2013-01-10 23:53:00
7:53 PM,61.0,57.9,90,30.24,10.0,SE,3.5,-,0.00,,Overcast,140,2013-01-11 00:53:00
8:17 PM,60.8,59.0,94,30.25,9.0,SE,9.2,-,0.01,Rain,Light Rain,130,2013-01-11 01:17:00
8:53 PM,61.0,59.0,93,30.23,10.0,ESE,9.2,-,0.01,,Overcast,120,2013-01-11 01:53:00
9:27 PM,60.8,60.8,100,30.24,10.0,SE,8.1,-,N/A,,Overcast,130,2013-01-11 02:27:00
9:49 PM,62.6,60.8,94,30.23,10.0,SSE,9.2,36.8,N/A,,Squalls,150,2013-01-11 02:49:00
9:53 PM,62.1,60.1,93,30.22,10.0,SSE,8.1,27.6,N/A,,Overcast,150,2013-01-11 02:53:00
10:38 PM,62.6,60.8,94,30.20,6.0,SE,10.4,-,N/A,,Overcast,140,2013-01-11 03:38:00
10:53 PM,62.1,61.0,96,30.17,9.0,SE,8.1,-,N/A,,Overcast,130,2013-01-11 03:53:00
11:18 PM,62.6,60.8,94,30.18,10.0,SE,13.8,-,N/A,,Overcast,140,2013-01-11 04:18:00
11:42 PM,62.6,60.8,94,30.16,10.0,SE,10.4,20.7,0.00,Rain,Light Rain,140,2013-01-11 04:42:00
11:53 PM,62.6,60.8,94,30.16,9.0,SE,15.0,21.9,N/A,Rain,Light Rain,140,2013-01-11 04:53:00